Select another period ( hide this area )

Eenheden Periode Custom range Directly to
Metrisch Engels Beide
Dagelijkse Wekelijkse Maandelijkse Jaarlijkse
use both date-selectors for a custom range
previous Dag
With this date

WeatherUnderground graphs for this period ( click here )


Dagelijkse Samenvatting Donderdag 25 april 2019
Tijd Temp. ( °C ) Dew pt. ( °C ) Wind ( km/h ) van Windvlaag ( km/h ) Luchtdruk ( hPa ) Humid.( % ) Rainrate ( cm )
Hoog12,1 11,1 6,4 ZZW ( 6/24 ) 14,5 1004,3 97 3,30
Gemiddeld10,6 9,8 0,7 Kalm #26/34 5,0 1003,0 95 3,10
Laag8,5 7,8 -   0,0 1001,9 88 -
Dagelijkse Tabular details for Donderdag 25 april 2019
Tijd Temp. ( °C ) Dew pt. ( °C ) Wind ( km/h ) van Windvlaag ( km/h ) Luchtdruk ( hPa ) Humid.( % ) Rainrate ( cm )
00:00 11,7 11,1   Kalm 3,2 1002,6 95 3,00
00:15 11,9 11,1   Kalm 4,8 1002,3 95 2,30
00:30 11,7 11,1   Kalm 6,4 1001,9 95 3,30
00:45 11,7 11,1 3,2 ZZO 8,0 1001,9 95 2,80
01:15 11,6 11,1 4,8 ZZW 8,0 1001,9 96 1,50
01:30 11,6 11,1   Kalm 4,8 1002,3 96 0,30
02:00 11,4 10,6   Kalm 11,3 1002,3 96 -
02:15 11,3 10,6 6,4 ZW 14,5 1002,6 96 -
02:30 11,1 10,6 1,6 ZZW 14,5 1002,6 95 -
02:45 10,9 10,0   Kalm 4,8 1002,6 95 -
03:15 10,4 10,0   Kalm 3,2 1002,9 95 -
03:30 10,3 9,4   Kalm 6,4 1003,3 95 -
03:45 10,2 9,4 1,6 Zuiden 6,4 1003,3 95 -
04:00 10,0 9,4   Kalm 3,2 1003,3 95 -
04:15 9,8 8,9   Kalm 1,6 1003,3 95 -
04:45 9,3 8,9   Kalm   1002,9 95 -
05:00 9,1 8,3   Kalm 1,6 1002,9 95 -
05:45 8,7 8,3   Kalm   1002,9 96 -
06:15 8,7 8,3   Kalm 3,2 1002,6 96 0,30
06:30 8,6 8,3   Kalm 1,6 1002,6 96 0,30
06:45 8,5 7,8   Kalm 1,6 1002,6 96 0,30
07:15 9,3 8,9   Kalm 4,8 1002,9 97 -
07:30 9,7 9,4   Kalm 8,0 1002,9 97 -
07:45 9,9 9,4 3,2 WZW 6,4 1002,9 96 -
08:00 10,0 9,4 1,6 WZW 4,8 1002,9 96 -
08:30 10,3 9,4   Kalm 4,8 1003,3 96 -
08:45 10,4 10,0 1,6 Westen 3,2 1003,3 95 -
09:00 10,8 10,0   Kalm 3,2 1003,3 95 -
09:15 11,3 10,6   Kalm 3,2 1003,6 94 -
09:30 11,6 10,6   Kalm 4,8 1003,6 93 -
09:45 11,7 10,6   Kalm 3,2 1003,9 91 -
10:00 11,7 10,0   Kalm 6,4 1003,9 90 -
10:30 11,8 10,0   Kalm 4,8 1004,3 88 -
10:45 12,1 10,0   Kalm 4,8 1004,3 88 -
Dagelijkse Samenvatting Donderdag 25 april 2019
Tijd Temp. ( °C ) Dew pt. ( °C ) Wind ( km/h ) van Windvlaag ( km/h ) Luchtdruk ( hPa ) Humid.( % ) Rainrate ( cm )
Hoog12,1 11,1 6,4 ZZW ( 6/24 ) 14,5 1004,3 97 3,30
Gemiddeld10,6 9,8 0,7 Kalm #26/34 5,0 1003,0 95 3,10
Laag8,5 7,8 -   0,0 1001,9 88 -
Dagelijkse Tabular details for Donderdag 25 april 2019
Tijd Temp. ( °C ) Dew pt. ( °C ) Wind ( km/h ) van Windvlaag ( km/h ) Luchtdruk ( hPa ) Humid.( % ) Rainrate ( cm )
00:00 11,7 11,1   Kalm 3,2 1002,6 95 3,00
00:15 11,9 11,1   Kalm 4,8 1002,3 95 2,30
00:30 11,7 11,1   Kalm 6,4 1001,9 95 3,30
00:45 11,7 11,1 3,2 ZZO 8,0 1001,9 95 2,80
01:15 11,6 11,1 4,8 ZZW 8,0 1001,9 96 1,50
01:30 11,6 11,1   Kalm 4,8 1002,3 96 0,30
02:00 11,4 10,6   Kalm 11,3 1002,3 96 -
02:15 11,3 10,6 6,4 ZW 14,5 1002,6 96 -
02:30 11,1 10,6 1,6 ZZW 14,5 1002,6 95 -
02:45 10,9 10,0   Kalm 4,8 1002,6 95 -
03:15 10,4 10,0   Kalm 3,2 1002,9 95 -
03:30 10,3 9,4   Kalm 6,4 1003,3 95 -
03:45 10,2 9,4 1,6 Zuiden 6,4 1003,3 95 -
04:00 10,0 9,4   Kalm 3,2 1003,3 95 -
04:15 9,8 8,9   Kalm 1,6 1003,3 95 -
04:45 9,3 8,9   Kalm   1002,9 95 -
05:00 9,1 8,3   Kalm 1,6 1002,9 95 -
05:45 8,7 8,3   Kalm   1002,9 96 -
06:15 8,7 8,3   Kalm 3,2 1002,6 96 0,30
06:30 8,6 8,3   Kalm 1,6 1002,6 96 0,30
06:45 8,5 7,8   Kalm 1,6 1002,6 96 0,30
07:15 9,3 8,9   Kalm 4,8 1002,9 97 -
07:30 9,7 9,4   Kalm 8,0 1002,9 97 -
07:45 9,9 9,4 3,2 WZW 6,4 1002,9 96 -
08:00 10,0 9,4 1,6 WZW 4,8 1002,9 96 -
08:30 10,3 9,4   Kalm 4,8 1003,3 96 -
08:45 10,4 10,0 1,6 Westen 3,2 1003,3 95 -
09:00 10,8 10,0   Kalm 3,2 1003,3 95 -
09:15 11,3 10,6   Kalm 3,2 1003,6 94 -
09:30 11,6 10,6   Kalm 4,8 1003,6 93 -
09:45 11,7 10,6   Kalm 3,2 1003,9 91 -
10:00 11,7 10,0   Kalm 6,4 1003,9 90 -
10:30 11,8 10,0   Kalm 4,8 1004,3 88 -
10:45 12,1 10,0   Kalm 4,8 1004,3 88 -

Download your copy of this data-set  here

Our weather-data as stored at Weather Underground. Script ontwikkeld door Jim McMurry. Aangepast voor de template door Leuven-Template.eu

U vindt ons ook hier:

Het Weer Aktueel

European Weather Network

WeatherCloud

Weather Underground

Benelux Weer Netwerk

Apparatuur in gebruik:

Weerstation
Davis VP2

Weerprogramma
consoleWD

Weercomputer
Raspberry

Webleverancier
Stef van Bakel koeltechniek

Davis VP2

consoleWD

Raspberry

Stef van Bakel koeltechniek